Orbital Elements at Epoch 2459000.5 (2020-May-31.0) TDB
Reference: JPL 20 (heliocentric ecliptic J2000)
Element | Value | Uncertainty (1-sigma) | Units |
e | .07036770566177525 | 4.5648e-08 | |
a | 1.928663239448964 | 5.3826e-09 | au |
q | 1.792947632294734 | 8.9412e-08 | au |
i | 19.1467570973266 | 4.6539e-06 | deg |
node | 240.0953487961518 | 1.3443e-05 | deg |
peri | 255.8715361552813 | 3.8041e-05 | deg |
M | 172.2921646820086 | 3.7128e-05 | deg |
tp | 2458532.284207572394 (2019-Feb-17.78420757) | 0.0001003 | TDB |
period | 978.3247287248215 2.68 | 4.0955e-06 1.121e-08 | d yr |
n | .3679759791712871 | 1.5404e-09 | deg/d |
Q | 2.064378846603195 | 5.7613e-09 | au |
|
| | Orbit Determination Parameters
Additional Information
|